Hourly Data Report for October 02, 2017

All times are specified in Local Standard Time (LST). Add 1 hour to adjust for Daylight Saving Time where and when it is observed.

PORT HARDY A
BRITISH COLUMBIA

50°40'50.000" N
127°22'00.000" W
21.60 m
1026271
71109
YZT

Download Data

Hourly Data (October 2017)
Hourly Data Report for October 2, 2017
Temp Definition
°C
Dew Point Temp Definition
°C
Rel Hum Definition
%
Wind Dir Definition
10's deg

Wind Spd Definition
km/h
Visibility Definition
km
Stn Press Definition
kPa
Hmdx Definition


Wind Chill Definition


Weather Definition


TIME
00:00 Legend Double Dagger 6.5 5.7 95 21 7 24.1 102.08     LegendNANA
01:00 Legend Double Dagger 5.3 4.3 93 25 7 24.1 102.09     Mainly Clear
02:00 Legend Double Dagger 5.2 4.3 94 23 8 24.1 102.10     LegendNANA
03:00 Legend Double Dagger 7.0 6.4 96 23 6 24.1 102.10     LegendNANA
04:00 Legend Double Dagger 7.5 6.7 94 26 11 24.1 102.12     Mostly Cloudy
05:00 Legend Double Dagger 9.0 8.3 96 4 8 19.3 102.15     LegendNANA
06:00 Legend Double Dagger 8.9 8.3 96 36 2 19.3 102.15     LegendNANA
07:00 Legend Double Dagger 8.8 8.1 95 13 6 19.3 102.20     Mostly Cloudy
08:00 Legend Double Dagger 9.8 8.2 90 25 5 24.1 102.20     LegendNANA
09:00 Legend Double Dagger 10.8 8.7 87 2 8 32.2 102.26     LegendNANA
10:00 Legend Double Dagger 10.7 8.2 85 6 8 32.2 102.28     Mainly Clear
11:00 Legend Double Dagger 11.1 8.6 84 4 8 32.2 102.27     LegendNANA
12:00 Legend Double Dagger 11.2 8.6 84 5 9 32.2 102.29     LegendNANA
13:00 Legend Double Dagger 11.9 8.8 81 5 7 32.2 102.31     Clear
14:00 Legend Double Dagger 12.8 8.7 76 2 8 32.2 102.29     LegendNANA
15:00 Legend Double Dagger 12.5 8.4 76 2 5 32.2 102.28     LegendNANA
16:00 Legend Double Dagger 13.5 7.3 66 9 4 32.2 102.30     Clear
17:00 Legend Double Dagger 13.1 6.3 63 36 1 32.2 102.28     LegendNANA
18:00 Legend Double Dagger 9.9 7.6 86 33 5 32.2 102.30     LegendNANA
19:00 Legend Double Dagger 6.7 5.3 91 23 6 24.1 102.34     Clear
20:00 Legend Double Dagger 5.0 3.8 92 21 6 24.1 102.35     LegendNANA
21:00 Legend Double Dagger 4.3 3.1 92 24 7 24.1 102.35     LegendNANA
22:00 Legend Double Dagger 3.4 2.4 93 23 5 24.1 102.38     Clear
23:00 Legend Double Dagger 3.3 2.2 93 21 8 24.1 102.37     LegendNANA

Notes on Data Quality.

Legend

  • E = Estimated
  • M = Missing
  • NA = Not Available
  • ‡ = Partner data that is not subject to review by the National Climate Archives
Date modified: